Weather in Blanc-Sablon

Canada     51°25′33″N   57°07′43″W
temp.,
°C
wind,
m/s
gust,
m/s
humid.,
%
clouds,
%
prec.,
mm/h
press.,
hPa
HPBL,
m
11 april, sun
sun1123:00+3ene1322100100 0.9 1007423
02:00+4ene142499100 0.9 1008479
05:00+3ne162597100 0.2 1010470
08:00+4ne152499100 0.7 1012469
11:00+4ne152496100 1.9 1013491
14:00+5ne13229593 4.1 1015437
17:00+5ne12219397 0.0 1016443
20:00+4ne11208898 0.0 1018395
12 april, mon
mon1223:00+4ne11218595 0.0 1019417
02:00+4ne11208441 0.0 1019383
05:00+3ne11218246 0.0 1020416
08:00+4ne1320842 0.0 1022684
11:00+6ne1318765 0.0 10221001
14:00+7ne1418705 0.0 10211059
17:00+6ne1318745 0.0 10211006
20:00+3ne1219835 0.0 1022557
13 april, tue
tue1323:00+1ne13188998 0.0 1022537
02:00+1ene121779100 0.0 1023763
05:00+1ene121573100 0.0 1023844
08:00+2ene11156994 0.0 1023847
11:00+4ene12146310 0.0 1023891
14:00+5ene1113599 0.0 1022952
17:00+5ene912500 0.0 1021909
20:00+2ne611640 0.0 1021448
14 april, wed
wed1423:00+1nne47650 0.0 1020177
02:00+1nne47610 0.0 1018151
05:00+1nne33560 0.0 101745
08:00+5ne46330 0.0 1017422
11:00+8ene34265 0.0 1016837
14:00+10ene24275 0.0 10141004
17:00+9e46360 0.0 1014989
20:00+4ene47631 0.0 1017327
15 april, thu
thu1523:00+1ne711726 0.0 1018546
02:00+2ne91167100 0.0 1019902
05:00−1nne8117317 0.0 1020629
08:00+1ne895790 0.0 1022985
11:00+3ne784471 0.0 10211294
14:00+4ene78395 0.0 10211413
17:00+2e79401 0.0 10221312
20:000ene68420 0.0 1023976